Location: Ohmer (historical)
(38.0096°N, 122.0227°W)
Time: 00:05:50
(UTC+00:00)

SKYMED 2 - Pass Details

Date: 14 February 2026
Orbit: 622 x 623 km, 97.9° (Epoch: 9 March)

Event Time Altitude Azimuth Distance (km) Brightness Sun altitude
Rises 13:32:42 0° 172° (S) 2,888 7.1 -17.6°
Reaches altitude 10° 13:34:53 10° 175° (S) 1,986 6.2 -17.2°
Maximum altitude 13:39:11 68° 259° (WSW) 671 3.5 -16.3°
Drops below altitude 10° 13:43:31 10° 342° (NNW) 2,000 6.0 -15.5°
Sets 13:45:44 0° 345° (NNW) 2,910 6.8 -15.0°
